Terug naar catalogus

CZ-3B R/B

ActiefHEO
NORAD 43247·ROCKET BODY·🇨🇳 China

Gelanceerd Mar 29, 2018 vanaf Xichang Satellite Launch Center

Loading…

Volgende Passages (komende 24 uur)

TLE

VersSource: Space-Track

Epoch: Sep 14, 2026, 02:30 UTC

1 43247U 18029C   26257.10418032  .00004801  00000-0  12431-2 0  9997
2 43247  54.9436  35.2745 5534715 113.0206 313.0943  4.73268284144693

Volg CZ-3B R/B in realtime met AllMySat

Download on the App Store